Location: Bruderhein
(53.8035°N, 112.9265°W)
Time: 02:49:23
(UTC+00:00)

ISS - Visible Passes

Search period start: 27 November 2022 00:00
Search period end: 07 December 2022 00:00
Orbit: 411 x 421 km, 51.6° (Epoch: 27 November)

Date Brightness Start Highest point End Pass type
(mag) Time Alt. Az. Time Alt. Az. Time Alt. Az.
27 Nov -3.5 01:23:37 10° WSW 01:26:55 59° S 01:27:29 49° SE visible
27 Nov -0.2 03:00:14 10° W 03:00:22 11° W 03:00:22 11° W visible
28 Nov -3.3 00:35:04 10° WSW 00:38:20 54° S 00:40:46 16° E visible
28 Nov -2.0 02:11:36 10° W 02:13:39 32° WSW 02:13:39 32° WSW visible
29 Nov -3.4 01:22:58 10° W 01:26:16 58° S 01:26:57 46° SE visible
29 Nov -0.2 02:59:44 10° W 02:59:50 11° W 02:59:50 11° W visible
30 Nov -3.4 00:34:20 10° W 00:37:38 60° S 00:40:15 15° ESE visible
30 Nov -1.9 02:11:00 10° W 02:13:09 29° WSW 02:13:09 29° WSW visible
01 Dec -3.0 01:22:18 10° W 01:25:31 45° SSW 01:26:30 33° SSE visible
02 Dec -3.1 00:33:35 10° W 00:36:51 53° S 00:39:54 11° ESE visible
02 Dec -1.6 02:10:27 10° W 02:12:48 22° SW 02:12:48 22° SW visible
03 Dec -2.1 01:21:35 10° W 01:24:34 30° SSW 01:26:18 19° SSE visible
04 Dec -2.4 00:32:46 10° W 00:35:55 38° SSW 00:39:02 10° SE visible
04 Dec -0.9 02:10:24 10° WSW 02:11:59 13° SW 02:12:50 12° SSW visible
05 Dec -1.1 01:21:03 10° WSW 01:23:25 18° SSW 01:25:45 10° SSE visible
06 Dec -1.4 00:32:00 10° W 00:34:46 24° SSW 00:37:32 10° SSE visible
